DW0550 Weather Reports


Display with metric or nautical units.
time (UTC)temp
F
wind
direction
speed
MPH
gust
MPH
rain 1hr
in
rain 24hr
in
rain mn
in
humidity
%
barometer
mb
20180624034036 83 202 0.0 4.0 0.00 0.00 0.00 38 1014.0
20180624033513 83 203 0.0 6.0 0.00 0.00 0.00 38 1013.9
20180624033007 84 191 1.0 6.0 0.00 0.00 0.00 39 1014.0
20180624032541 84 184 0.0 1.0 0.00 0.00 0.00 39 1014.0
20180624032033 84 192 0.0 6.0 0.00 0.00 0.00 39 1013.8
20180624031508 84 205 1.0 6.0 0.00 0.00 0.00 39 1013.9
20180624031041 84 184 1.0 6.0 0.00 0.00 0.00 39 1013.9
20180624030530 84 195 0.0 1.0 0.00 0.00 0.00 40 1013.9
20180624030004 84 197 0.0 4.0 0.00 0.00 0.00 40 1013.7
20180624025552 84 189 1.0 4.0 0.00 0.00 0.00 40 1013.7
20180624025029 84 170 0.0 1.0 0.00 0.00 0.00 40 1013.6
20180624024523 84 173 0.0 1.0 0.00 0.00 0.00 41 1013.5
20180624024010 84 164 0.0 8.0 0.00 0.00 0.00 41 1013.4
20180624023503 84 163 0.0 8.0 0.00 0.00 0.00 41 1013.3
20180624022957 84 209 2.0 8.0 0.00 0.00 0.00 41 1013.1
20180624022550 84 157 1.0 7.0 0.00 0.00 0.00 41 1013.0
20180624022025 84 205 0.0 8.0 0.00 0.00 0.00 41 1013.0
20180624021459 84 159 3.0 8.0 0.00 0.00 0.00 41 1012.9
20180624021031 85 181 0.0 8.0 0.00 0.00 0.00 42 1012.9
20180624020521 85 194 0.0 6.0 0.00 0.00 0.00 42 1013.0
20180624020012 85 162 0.0 7.0 0.00 0.00 0.00 43 1013.0
20180624015545 85 157 1.0 7.0 0.00 0.00 0.00 43 1013.0
20180624015035 85 163 0.0 2.0 0.00 0.00 0.00 43 1013.1
20180624014520 85 172 0.0 3.0 0.00 0.00 0.00 44 1012.7
20180624014012 85 179 0.0 8.0 0.00 0.00 0.00 44 1012.6
20180624013545 86 180 1.0 8.0 0.00 0.00 0.00 45 1012.7
20180624013024 86 194 0.0 5.0 0.00 0.00 0.00 47 1012.6
20180624012516 86 155 0.0 8.0 0.00 0.00 0.00 48 1012.5
20180624012009 86 171 1.0 8.0 0.00 0.00 0.00 50 1012.6
20180624011543 86 165 0.0 7.0 0.00 0.00 0.00 51 1012.5
20180624011035 86 177 1.0 9.0 0.00 0.00 0.00 53 1012.5
20180624010526 87 159 2.0 9.0 0.00 0.00 0.00 55 1012.3
20180624010003 87 175 0.0 4.0 0.00 0.00 0.00 56 1012.3
20180624005551 87 193 0.0 8.0 0.00 0.00 0.00 56 1012.2
20180624005027 87 171 1.0 9.0 0.00 0.00 0.00 56 1012.1
20180624004517 87 161 0.0 8.0 0.00 0.00 0.00 57 1012.1
20180624004010 87 163 0.0 8.0 0.00 0.00 0.00 57 1012.0
20180624003545 87 225 0.0 10.0 0.00 0.00 0.00 57 1011.9
20180624003032 87 199 0.0 11.0 0.00 0.00 0.00 58 1011.8
20180624002523 88 159 0.0 12.0 0.00 0.00 0.00 58 1011.7
20180624001959 88 181 1.0 12.0 0.00 0.00 0.00 58 1011.9
20180624001531 88 184 2.0 8.0 0.00 0.00 0.00 58 1011.8
20180624001004 89 159 1.0 9.0 0.00 0.00 0.00 59 1011.9
20180624000534 89 161 0.0 11.0 0.00 0.00 0.00 59 1011.8
20180624000028 89 211 4.0 11.0 0.00 0.00 0.00 59 1011.7
20180623235517 90 165 0.0 5.0 0.00 0.00 0.00 59 1011.6
20180623235010 90 148 1.0 5.0 0.00 0.00 0.00 59 1011.4
20180623234545 90 265 0.0 6.0 0.00 0.00 0.00 59 1011.4
20180623234038 90 187 0.0 6.0 0.00 0.00 0.00 58 1011.6
20180623233530 90 158 0.0 5.0 0.00 0.00 0.00 58 1011.6
20180623233008 90 211 0.0 5.0 0.00 0.00 0.00 58 1011.7
20180623232541 90 178 0.0 5.0 0.00 0.00 0.00 57 1011.6
20180623232014 90 149 0.0 5.0 0.00 0.00 0.00 57 1011.6
20180623231547 91 169 0.0 4.0 0.00 0.00 0.00 57 1011.6
20180623231037 91 205 0.0 2.0 0.00 0.00 0.00 57 1011.7
20180623230530 91 255 0.0 8.0 0.00 0.00 0.00 57 1011.7
20180623230020 91 146 0.0 7.0 0.00 0.00 0.00 57 1011.6
20180623225511 91 165 0.0 7.0 0.00 0.00 0.00 57 1011.8
20180623225045 91 165 2.0 7.0 0.00 0.00 0.00 56 1011.9
20180623224522 91 210 0.0 6.0 0.00 0.00 0.00 57 1011.9
20180623224014 91 148 1.0 8.0 0.00 0.00 0.00 58 1011.9
20180623223507 91 150 0.0 7.0 0.00 0.00 0.00 56 1011.9
20180623223041 92 150 0.0 7.0 0.00 0.00 0.00 56 1012.0
20180623222531 92 202 0.0 5.0 0.00 0.00 0.00 53 1011.9
20180623222023 92 198 1.0 5.0 0.00 0.00 0.00 54 1011.9
20180623221516 92 200 0.0 7.0 0.00 0.00 0.00 53 1011.9
20180623221046 92 98 1.0 7.0 0.00 0.00 0.00 54 1012.0
20180623220525 92 201 0.0 7.0 0.00 0.00 0.00 54 1012.2
20180623220016 92 196 0.0 8.0 0.00 0.00 0.00 54 1012.2
20180623215510 92 189 2.0 8.0 0.00 0.00 0.00 53 1012.4
20180623215045 92 175 0.0 6.0 0.00 0.00 0.00 54 1012.3
20180623214538 92 146 0.0 6.0 0.00 0.00 0.00 52 1012.2
20180623214030 92 281 0.0 9.0 0.00 0.00 0.00 53 1012.2
20180623213504 92 172 1.0 9.0 0.00 0.00 0.00 53 1012.4
20180623213037 92 180 0.0 10.0 0.00 0.00 0.00 52 1012.5
20180623212510 93 173 2.0 10.0 0.00 0.00 0.00 50 1012.5
20180623212043 93 232 0.0 7.0 0.00 0.00 0.00 52 1012.6
20180623211514 93 327 1.0 5.0 0.00 0.00 0.00 52 1012.6
20180623211048 93 252 0.0 7.0 0.00 0.00 0.00 51 1012.7
20180623210541 94 306 1.0 7.0 0.00 0.00 0.00 48 1012.8
20180623210035 94 293 1.0 7.0 0.00 0.00 0.00 50 1012.8
20180623205528 93 316 0.0 6.0 0.00 0.00 0.00 49 1012.9
20180623205004 93 191 0.0 6.0 0.00 0.00 0.00 49 1013.0
20180623204538 94 301 0.0 4.0 0.00 0.00 0.00 50 1012.9
20180623204031 93 277 1.0 5.0 0.00 0.00 0.00 51 1013.2
20180623203520 93 288 1.0 12.0 0.00 0.00 0.00 50 1013.2
20180623203013 93 299 0.0 10.0 0.00 0.00 0.00 51 1013.2
20180623202505 93 306 1.0 10.0 0.00 0.00 0.00 48 1013.2
20180623201958 93 308 0.0 9.0 0.00 0.00 0.00 52 1013.2
20180623201552 94 236 0.0 9.0 0.00 0.00 0.00 50 1013.2
20180623201029 94 278 1.0 9.0 0.00 0.00 0.00 51 1013.4
20180623200522 94 217 0.0 10.0 0.00 0.00 0.00 52 1013.3
20180623200015 93 246 0.0 10.0 0.00 0.00 0.00 53 1013.5
20180623195507 93 298 1.0 7.0 0.00 0.00 0.00 52 1013.5
20180623195042 93 302 0.0 8.0 0.00 0.00 0.00 53 1013.5
20180623194535 93 195 0.0 8.0 0.00 0.00 0.00 53 1013.6
20180623194028 93 262 0.0 9.0 0.00 0.00 0.00 53 1013.7
20180623193505 92 311 1.0 9.0 0.00 0.00 0.00 53 1013.7
20180623193040 93 315 1.0 5.0 0.00 0.00 0.00 53 1013.7
20180623192529 93 337 0.0 5.0 0.00 0.00 0.00 54 1013.9
20180623192021 92 290 0.0 2.0 0.00 0.00 0.00 54 1014.0
20180623191513 91 292 0.0 2.0 0.00 0.00 0.00 54 1014.0
20180623191044 92 244 0.0 8.0 0.00 0.00 0.00 54 1014.1
20180623190514 92 146 1.0 8.0 0.00 0.00 0.00 55 1014.0
20180623190044 91 190 0.0 2.0 0.00 0.00 0.00 55 1014.1
20180623185536 91 264 0.0 1.0 0.00 0.00 0.00 55 1014.1
20180623185012 91 226 0.0 1.0 0.00 0.00 0.00 55 1014.2
20180623184540 93 274 0.0 3.0 0.00 0.00 0.00 54 1014.3
20180623184014 91 331 0.0 4.0 0.00 0.00 0.00 55 1014.4
20180623183547 90 299 0.0 4.0 0.00 0.00 0.00 55 1014.4
20180623183040 89 250 0.0 7.0 0.00 0.00 0.00 55 1014.6
20180623182530 90 297 1.0 7.0 0.00 0.00 0.00 55 1014.7
20180623182023 91 293 0.0 10.0 0.00 0.00 0.00 55 1014.5
20180623181459 91 282 2.0 8.0 0.00 0.00 0.00 55 1014.7
20180623181031 91 281 0.0 5.0 0.00 0.00 0.00 55 1014.8
20180623180523 91 259 0.0 1.0 0.00 0.00 0.00 55 1014.7
20180623180015 91 225 0.0 2.0 0.00 0.00 0.00 55 1014.8
20180623175546 90 295 0.0 9.0 0.00 0.00 0.00 55 1014.7
20180623175039 90 221 1.0 9.0 0.00 0.00 0.00 55 1014.9
20180623174513 90 168 0.0 12.0 0.00 0.00 0.00 55 1014.8
20180623174045 90 180 1.0 12.0 0.00 0.00 0.00 55 1014.9
20180623173537 90 318 1.0 11.0 0.00 0.00 0.00 55 1014.8
20180623173015 90 313 2.0 11.0 0.00 0.00 0.00 55 1014.9
20180623172549 90 248 0.0 12.0 0.00 0.00 0.00 55 1014.7
20180623172039 90 169 4.0 12.0 0.00 0.00 0.00 55 1014.7
20180623171532 89 250 0.0 10.0 0.00 0.00 0.00 55 1014.7
20180623171025 89 171 2.0 8.0 0.00 0.00 0.00 54 1014.7
20180623170458 89 190 0.0 6.0 0.00 0.00 0.00 54 1014.7
20180623170051 89 142 0.0 11.0 0.00 0.00 0.00 54 1014.8
20180623165541 89 194 2.0 11.0 0.00 0.00 0.00 55 1014.9
20180623165018 89 175 0.0 6.0 0.00 0.00 0.00 52 1015.0
20180623164511 89 173 0.0 5.0 0.00 0.00 0.00 52 1015.0
20180623164004 89 248 0.0 7.0 0.00 0.00 0.00 53 1015.0
20180623163539 89 163 0.0 8.0 0.00 0.00 0.00 53 1014.9
20180623163032 88 192 0.0 7.0 0.00 0.00 0.00 51 1015.1
20180623162524 88 207 1.0 5.0 0.00 0.00 0.00 51 1015.1
20180623161958 88 196 0.0 11.0 0.00 0.00 0.00 52 1015.0
20180623161546 88 196 1.0 12.0 0.00 0.00 0.00 51 1015.0
20180623161023 88 179 1.0 7.0 0.00 0.00 0.00 50 1015.0
20180623160514 87 202 0.0 8.0 0.00 0.00 0.00 47 1015.1
20180623160007 86 299 1.0 8.0 0.00 0.00 0.00 46 1015.0
20180623155500 87 205 0.0 1.0 0.00 0.00 0.00 47 1014.9
20180623155034 87 242 0.0 1.0 0.00 0.00 0.00 49 1014.8
20180623154528 87 270 0.0 9.0 0.00 0.00 0.00 48 1014.8
20180623154005 87 239 0.0 5.0 0.00 0.00 0.00 48 1014.8
20180623153458 87 280 1.0 11.0 0.00 0.00 0.00 46 1014.8
20180623153012 86 245 1.0 11.0 0.00 0.00 0.00 46 1014.9
20180623152505 86 308 1.0 7.0 0.00 0.00 0.00 46 1015.0
20180623151959 86 298 0.0 9.0 0.00 0.00 0.00 45 1014.9
20180623151513 86 205 0.0 9.0 0.00 0.00 0.00 45 1014.8
20180623151007 86 172 0.0 6.0 0.00 0.00 0.00 46 1014.7
20180623150537 87 182 0.0 9.0 0.00 0.00 0.00 45 1014.9
20180623150030 86 286 0.0 9.0 0.00 0.00 0.00 45 1014.8
20180623145508 86 234 1.0 9.0 0.00 0.00 0.00 44 1014.8
20180623145042 86 185 0.0 9.0 0.00 0.00 0.00 45 1014.7
20180623144534 87 315 0.0 2.0 0.00 0.00 0.00 44 1014.8
20180623144008 86 231 0.0 10.0 0.00 0.00 0.00 42 1014.7
20180623143540 86 174 1.0 13.0 0.00 0.00 0.00 42 1014.7
20180623143033 86 219 2.0 13.0 0.00 0.00 0.00 41 1014.7
20180623142526 85 242 1.0 10.0 0.00 0.00 0.00 42 1014.7
20180623142004 85 209 1.0 12.0 0.00 0.00 0.00 40 1014.7
20180623141538 85 261 2.0 12.0 0.00 0.00 0.00 40 1014.6
20180623141032 85 285 0.0 8.0 0.00 0.00 0.00 38 1014.5
20180623140526 85 243 1.0 10.0 0.00 0.00 0.00 38 1014.5
20180623140016 85 161 1.0 12.0 0.00 0.00 0.00 38 1014.5
20180623135552 84 290 0.0 12.0 0.00 0.00 0.00 37 1014.3
20180623135025 84 294 1.0 9.0 0.00 0.00 0.00 37 1014.3
20180623134500 84 203 0.0 10.0 0.00 0.00 0.00 37 1014.3
20180623134046 84 194 0.0 10.0 0.00 0.00 0.00 37 1014.3
20180623133521 84 325 0.0 9.0 0.00 0.00 0.00 37 1014.1
20180623133014 83 212 0.0 10.0 0.00 0.00 0.00 37 1014.2
20180623132507 83 166 1.0 10.0 0.00 0.00 0.00 37 1014.4
20180623132001 83 194 1.0 7.0 0.00 0.00 0.00 37 1014.3
20180623131536 83 286 1.0 7.0 0.00 0.00 0.00 37 1014.3
20180623131027 83 198 1.0 11.0 0.00 0.00 0.00 37 1014.2
20180623130521 83 308 1.0 11.0 0.00 0.00 0.00 37 1014.2
20180623125959 83 317 2.0 8.0 0.00 0.00 0.00 37 1014.1
20180623125532 82 235 1.0 8.0 0.00 0.00 0.00 37 1014.0
20180623125024 82 271 2.0 8.0 0.00 0.00 0.00 37 1013.9
20180623124512 82 315 1.0 5.0 0.00 0.00 0.00 37 1013.9
20180623124042 82 289 0.0 4.0 0.00 0.00 0.00 37 1013.9
20180623123516 82 267 0.0 7.0 0.00 0.00 0.00 37 1013.8
20180623123050 81 293 1.0 7.0 0.00 0.00 0.00 37 1013.8
20180623122540 81 254 0.0 4.0 0.00 0.00 0.00 37 1013.9
20180623122018 81 279 0.0 1.0 0.00 0.00 0.00 37 1013.9
20180623121508 81 278 0.0 1.0 0.00 0.00 0.00 37 1013.8
20180623121041 81 288 0.0 5.0 0.00 0.00 0.00 37 1013.8
20180623120512 81 307 1.0 5.0 0.00 0.00 0.00 37 1013.6
20180623120046 81 247 0.0 4.0 0.00 0.00 0.00 37 1013.6
20180623115539 81 246 0.0 4.0 0.00 0.00 0.00 37 1013.7
20180623115014 81 281 1.0 7.0 0.00 0.00 0.00 37 1013.7
20180623114547 81 180 0.0 7.0 0.00 0.00 0.00 37 1013.6
20180623114040 81 286 0.0 1.0 0.00 0.00 0.00 37 1013.5
20180623113517 81 157 0.0 5.0 0.00 0.00 0.00 37 1013.5
20180623113010 81 211 0.0 8.0 0.00 0.00 0.00 37 1013.5
20180623112503 81 294 0.0 6.0 0.00 0.00 0.00 37 1013.4
20180623112037 81 220 1.0 5.0 0.00 0.00 0.00 37 1013.3
20180623111530 81 266 0.0 4.0 0.00 0.00 0.00 37 1013.3
20180623111018 81 297 0.0 0.0 0.00 0.00 0.00 37 1013.2
20180623110511 81 302 0.0 8.0 0.00 0.00 0.00 37 1013.2
20180623110044 81 306 0.0 8.0 0.00 0.00 0.00 37 1013.4
20180623105519 81 255 0.0 6.0 0.00 0.00 0.00 37 1013.3
20180623105013 81 335 0.0 4.0 0.00 0.00 0.00 37 1013.2
20180623104507 81 288 1.0 4.0 0.00 0.00 0.00 37 1013.2
20180623103956 81 307 0.0 4.0 0.00 0.00 0.00 37 1013.2
20180623103550 81 308 0.0 6.0 0.00 0.00 0.00 37 1013.3
20180623103024 81 284 1.0 6.0 0.00 0.00 0.00 37 1013.3
20180623102518 81 324 0.0 4.0 0.00 0.00 0.00 37 1013.2
20180623101956 81 209 0.0 5.0 0.00 0.00 0.00 37 1013.2
20180623101529 81 314 0.0 8.0 0.00 0.00 0.00 37 1013.2
20180623101023 81 324 0.0 8.0 0.00 0.00 0.00 37 1013.0
20180623100516 81 252 0.0 2.0 0.00 0.00 0.00 37 1013.0
20180623100009 81 225 0.0 3.0 0.00 0.00 0.00 37 1013.1
20180623095543 81 234 0.0 3.0 0.00 0.00 0.00 37 1013.0
20180623095033 81 239 0.0 11.0 0.00 0.00 0.00 37 1013.1
20180623094527 81 244 0.0 11.0 0.00 0.00 0.00 37 1013.0
20180623094005 81 315 0.0 1.0 0.00 0.00 0.00 37 1012.9
20180623093539 81 321 0.0 9.0 0.00 0.00 0.00 37 1012.8
20180623093032 81 323 0.0 9.0 0.00 0.00 0.00 37 1012.7
20180623092524 81 248 0.0 8.0 0.00 0.00 0.00 37 1012.7
20180623091040 81 321 0.0 12.0 0.00 0.00 0.00 37 1012.5
20180623090533 81 291 2.0 12.0 0.00 0.00 0.00 37 1012.4
20180623090011 81 207 0.0 4.0 0.00 0.00 0.00 37 1012.4
20180623085545 81 193 0.0 4.0 0.00 0.00 0.00 37 1012.5
20180623085038 81 321 0.0 11.0 0.00 0.00 0.00 37 1012.4
20180623084530 81 166 3.0 11.0 0.00 0.00 0.00 37 1012.4
20180623084022 81 355 1.0 6.0 0.00 0.00 0.00 37 1012.3
20180623083457 81 286 0.0 8.0 0.00 0.00 0.00 37 1012.2
20180623083050 81 175 0.0 12.0 0.00 0.00 0.00 37 1012.2
20180623082541 81 277 3.0 12.0 0.00 0.00 0.00 37 1012.2
20180623082016 81 190 1.0 8.0 0.00 0.00 0.00 37 1012.3
20180623081547 81 196 0.0 8.0 0.00 0.00 0.00 37 1012.4
20180623081041 81 198 1.0 6.0 0.00 0.00 0.00 37 1012.3
20180623080534 81 157 1.0 4.0 0.00 0.00 0.00 37 1012.2
20180623080008 81 244 0.0 5.0 0.00 0.00 0.00 37 1012.3
20180623075542 81 107 0.0 5.0 0.00 0.00 0.00 37 1012.2
20180623075129 81 172 0.0 5.0 0.00 0.00 0.00 37 1012.2
20180623074549 81 261 0.0 3.0 0.00 0.00 0.00 37 1012.4
20180623074026 81 169 0.0 4.0 0.00 0.00 0.00 37 1012.4
20180623073519 81 196 0.0 7.0 0.00 0.00 0.00 37 1012.3
20180623073013 81 169 1.0 7.0 0.00 0.00 0.00 37 1012.2
20180623072545 81 242 0.0 12.0 0.00 0.00 0.00 37 1012.2
20180623072039 81 277 0.0 12.0 0.00 0.00 0.00 37 1012.3
20180623071530 80 269 0.0 2.0 0.00 0.00 0.00 37 1012.3
20180623071023 80 194 0.0 2.0 0.00 0.00 0.00 37 1012.3
20180623070502 81 194 0.0 2.0 0.00 0.00 0.00 37 1012.2
20180623070013 81 194 0.0 5.0 0.00 0.00 0.00 37 1012.2
20180623065507 81 190 1.0 5.0 0.00 0.00 0.00 37 1012.2
20180623065002 81 221 0.0 4.0 0.00 0.00 0.00 37 1012.2
20180623064515 81 277 0.0 3.0 0.00 0.00 0.00 37 1012.3
20180623064010 81 315 0.0 3.0 0.00 0.00 0.00 38 1012.2
20180623063505 81 254 0.0 6.0 0.00 0.00 0.00 38 1012.1
20180623063004 81 293 1.0 6.0 0.00 0.00 0.00 38 1012.1
20180623062457 81 244 0.0 6.0 0.00 0.00 0.00 38 1012.2
20180623062011 81 252 1.0 6.0 0.00 0.00 0.00 38 1012.2
20180623061506 81 128 0.0 5.0 0.00 0.00 0.00 38 1012.2
20180623061001 81 304 0.0 5.0 0.00 0.00 0.00 38 1012.2
20180623060514 81 228 0.0 5.0 0.00 0.00 0.00 38 1012.3
20180623060008 81 211 0.0 5.0 0.00 0.00 0.00 38 1012.3
20180623055503 81 210 1.0 6.0 0.00 0.00 0.00 38 1012.2
20180623055000 81 217 0.0 8.0 0.00 0.00 0.00 38 1012.3
20180623054515 81 222 0.0 8.0 0.00 0.00 0.00 38 1012.2
20180623054009 81 194 1.0 5.0 0.00 0.00 0.00 38 1012.2
20180623053503 81 294 0.0 4.0 0.00 0.00 0.00 39 1012.2
20180623052957 81 214 0.0 7.0 0.00 0.00 0.00 39 1012.1
20180623052512 81 215 0.0 7.0 0.00 0.00 0.00 40 1012.1
20180623052005 81 286 0.0 6.0 0.00 0.00 0.00 40 1012.1
20180623051504 81 291 0.0 3.0 0.00 0.00 0.00 40 1012.1
20180623050959 81 184 0.0 3.0 0.00 0.00 0.00 39 1012.0
20180623050513 81 219 0.0 4.0 0.00 0.00 0.00 39 1012.1
20180623050007 81 223 0.0 4.0 0.00 0.00 0.00 40 1012.0
20180623045540 81 299 0.0 6.0 0.00 0.00 0.00 39 1011.9
20180623045012 81 299 1.0 6.0 0.00 0.00 0.00 40 1011.9
20180623044546 81 188 0.0 2.0 0.00 0.00 0.00 40 1012.0
20180623044038 82 248 0.0 4.0 0.00 0.00 0.00 40 1012.1
20180623043531 82 286 0.0 7.0 0.00 0.00 0.00 40 1012.0
20180623043008 82 198 1.0 6.0 0.00 0.00 0.00 40 1012.0
20180623042541 82 297 1.0 8.0 0.00 0.00 0.00 40 1012.0
20180623042034 82 211 1.0 8.0 0.00 0.00 0.00 41 1011.8
20180623041527 82 235 1.0 3.0 0.00 0.00 0.00 40 1011.8
20180623041021 82 302 0.0 3.0 0.00 0.00 0.00 40 1011.8
20180623040515 82 202 0.0 9.0 0.00 0.00 0.00 41 1011.6
20180623040049 82 206 0.0 9.0 0.00 0.00 0.00 41 1011.6
20180623035541 82 195 1.0 6.0 0.00 0.00 0.00 42 1011.5
20180623035018 82 284 1.0 5.0 0.00 0.00 0.00 43 1011.4
20180623034551 83 154 0.0 5.0 0.00 0.00 0.00 44 1011.3